GLO1334 SBSP-SBDN

Flight info

Callsign GLO1334
Flight time N/A
Altitude 36000
Route EGEVA UM415 PRR
Aircraft B738/M-SDE2E3FGHIRWXY/LB1

Departure

Time N/A
Airport Congonhas–Deputado Freitas Nobre Airport (SBSP)

Arrival

Time 2026-04-18 01:15
Airport Presidente Prudente Airport (SBDN)
Time Latitude Longitude Altitude Speed Heading
2026-04-18 00:33 -23.48067 -47.64523 10899 ft 350 kts 285°
2026-04-18 00:33 -23.47353 -47.67057 10902 ft 349 kts 285°
2026-04-18 00:33 -23.46651 -47.69547 10901 ft 349 kts 285°
2026-04-18 00:33 -23.45932 -47.72098 11294 ft 356 kts 285°
2026-04-18 00:34 -23.45202 -47.74687 11985 ft 358 kts 285°
2026-04-18 00:34 -23.44422 -47.77264 12697 ft 361 kts 290°
2026-04-18 00:34 -23.43320 -47.79742 13349 ft 366 kts 296°
2026-04-18 00:34 -23.42100 -47.82188 13982 ft 369 kts 297°
2026-04-18 00:35 -23.40857 -47.84647 14577 ft 371 kts 297°
2026-04-18 00:35 -23.39615 -47.87120 14858 ft 374 kts 297°
2026-04-18 00:35 -23.38383 -47.89595 14895 ft 372 kts 296°
2026-04-18 00:35 -23.37175 -47.92039 14907 ft 374 kts 296°
2026-04-18 00:36 -23.35948 -47.94535 14902 ft 374 kts 296°
2026-04-18 00:36 -23.34741 -47.96994 14905 ft 375 kts 296°
2026-04-18 00:36 -23.33513 -47.99497 14903 ft 375 kts 296°
2026-04-18 00:36 -23.32286 -48.01998 14901 ft 375 kts 296°
2026-04-18 00:37 -23.31058 -48.04497 14901 ft 375 kts 296°
2026-04-18 00:37 -23.29830 -48.06995 14906 ft 374 kts 296°
2026-04-18 00:37 -23.28617 -48.09500 14903 ft 374 kts 294°
2026-04-18 00:37 -23.27654 -48.12139 15122 ft 378 kts 287°
2026-04-18 00:38 -23.26837 -48.14802 15802 ft 377 kts 287°
2026-04-18 00:38 -23.26020 -48.17522 16491 ft 377 kts 286°
2026-04-18 00:38 -23.25198 -48.20242 17046 ft 381 kts 286°
2026-04-18 00:38 -23.24360 -48.22988 17592 ft 385 kts 286°
2026-04-18 00:39 -23.23505 -48.25756 18211 ft 386 kts 286°
2026-04-18 00:39 -23.22643 -48.28530 18689 ft 389 kts 287°
2026-04-18 00:39 -23.21770 -48.31324 19188 ft 391 kts 287°
2026-04-18 00:39 -23.20889 -48.34137 19680 ft 394 kts 287°
2026-04-18 00:40 -23.20006 -48.36956 20189 ft 396 kts 287°
2026-04-18 00:40 -23.19128 -48.39756 20627 ft 399 kts 287°
2026-04-18 00:40 -23.18228 -48.42623 21062 ft 402 kts 287°
2026-04-18 00:40 -23.17322 -48.45507 21565 ft 404 kts 287°
2026-04-18 00:41 -23.16414 -48.48394 22056 ft 405 kts 287°
2026-04-18 00:41 -23.15505 -48.51286 22491 ft 408 kts 287°
2026-04-18 00:41 -23.14579 -48.54229 22937 ft 411 kts 287°
2026-04-18 00:41 -23.13651 -48.57174 23360 ft 413 kts 287°
2026-04-18 00:42 -23.12714 -48.60137 23736 ft 415 kts 287°
2026-04-18 00:42 -23.11786 -48.63067 24124 ft 416 kts 287°
2026-04-18 00:42 -23.10844 -48.66036 24547 ft 416 kts 287°
2026-04-18 00:42 -23.09902 -48.69003 24975 ft 416 kts 287°
2026-04-18 00:43 -23.08959 -48.71975 25364 ft 417 kts 287°
2026-04-18 00:43 -23.08013 -48.74957 25725 ft 418 kts 287°
2026-04-18 00:43 -23.07062 -48.77949 26094 ft 419 kts 286°
2026-04-18 00:43 -23.06112 -48.80940 26486 ft 420 kts 286°
2026-04-18 00:44 -23.05165 -48.83917 26844 ft 420 kts 286°
2026-04-18 00:44 -23.04202 -48.86940 27190 ft 422 kts 286°
2026-04-18 00:44 -23.03255 -48.89913 27534 ft 423 kts 286°
2026-04-18 00:44 -23.02294 -48.92929 27881 ft 423 kts 286°
2026-04-18 00:45 -23.01331 -48.95949 28215 ft 425 kts 286°
2026-04-18 00:45 -23.00360 -48.98989 28528 ft 426 kts 286°
2026-04-18 00:45 -22.99390 -49.02025 28887 ft 426 kts 286°
2026-04-18 00:45 -22.98423 -49.05048 29429 ft 421 kts 286°
2026-04-18 00:46 -22.97527 -49.07845 30210 ft 410 kts 286°
2026-04-18 00:46 -22.96583 -49.10791 31025 ft 397 kts 286°
2026-04-18 00:46 -22.95707 -49.13521 31840 ft 384 kts 286°
2026-04-18 00:46 -22.94845 -49.16209 32668 ft 370 kts 286°
2026-04-18 00:47 -22.93959 -49.18777 33528 ft 357 kts 288°
2026-04-18 00:47 -22.93044 -49.21218 34348 ft 342 kts 288°
2026-04-18 00:47 -22.92163 -49.23550 35120 ft 326 kts 288°
2026-04-18 00:47 -22.91355 -49.25718 35576 ft 321 kts 287°
2026-04-18 00:48 -22.90529 -49.27957 35875 ft 319 kts 287°
2026-04-18 00:48 -22.88962 -49.32503 35906 ft 328 kts 284°
2026-04-18 00:49 -22.87518 -49.37289 35916 ft 340 kts 284°
2026-04-18 00:49 -22.86783 -49.39713 35917 ft 346 kts 284°
2026-04-18 00:49 -22.85256 -49.44689 35906 ft 358 kts 285°
2026-04-18 00:50 -22.83626 -49.49827 35905 ft 368 kts 286°
2026-04-18 00:50 -22.81850 -49.55086 35875 ft 372 kts 286°
2026-04-18 00:51 -22.80961 -49.57704 35707 ft 370 kts 286°
2026-04-18 00:51 -22.80084 -49.60292 35467 ft 362 kts 286°
2026-04-18 00:51 -22.79222 -49.62845 35046 ft 359 kts 286°
2026-04-18 00:51 -22.78371 -49.65374 34694 ft 356 kts 287°
2026-04-18 00:52 -22.77528 -49.67881 34327 ft 353 kts 287°
2026-04-18 00:52 -22.76689 -49.70377 33932 ft 352 kts 287°
2026-04-18 00:52 -22.75873 -49.72804 33508 ft 350 kts 287°
2026-04-18 00:52 -22.75034 -49.75295 33115 ft 348 kts 287°
2026-04-18 00:53 -22.74209 -49.77747 32714 ft 345 kts 287°
2026-04-18 00:53 -22.73390 -49.80176 32340 ft 343 kts 286°
2026-04-18 00:53 -22.72573 -49.82595 31971 ft 340 kts 286°
2026-04-18 00:53 -22.71761 -49.85002 31435 ft 343 kts 286°
2026-04-18 00:54 -22.70934 -49.87448 30840 ft 348 kts 287°
2026-04-18 00:54 -22.70060 -49.89806 30890 ft 334 kts 288°
2026-04-18 00:54 -22.68270 -49.94411 30722 ft 337 kts 288°
2026-04-18 00:55 -22.67376 -49.96726 30292 ft 334 kts 288°
2026-04-18 00:55 -22.66495 -49.99014 29602 ft 336 kts 288°
2026-04-18 00:55 -22.65594 -50.01358 28762 ft 339 kts 288°
2026-04-18 00:55 -22.64685 -50.03721 28004 ft 341 kts 288°
2026-04-18 00:56 -22.63775 -50.06084 27362 ft 340 kts 289°
2026-04-18 00:56 -22.62877 -50.08409 26742 ft 338 kts 289°
2026-04-18 00:56 -22.61973 -50.10751 26102 ft 337 kts 289°
2026-04-18 00:56 -22.61068 -50.13094 25459 ft 338 kts 289°
2026-04-18 00:57 -22.60164 -50.15434 24831 ft 338 kts 289°
2026-04-18 00:57 -22.59259 -50.17774 24240 ft 338 kts 290°
2026-04-18 00:57 -22.58352 -50.20120 23639 ft 338 kts 290°
2026-04-18 00:57 -22.57467 -50.22407 22983 ft 339 kts 290°
2026-04-18 00:58 -22.56558 -50.24753 22409 ft 336 kts 290°
2026-04-18 00:58 -22.55670 -50.27043 21888 ft 332 kts 290°
2026-04-18 00:58 -22.54780 -50.29338 21337 ft 330 kts 290°
2026-04-18 00:58 -22.53898 -50.31612 20800 ft 328 kts 290°
2026-04-18 00:59 -22.53020 -50.33875 20263 ft 326 kts 290°
2026-04-18 00:59 -22.52147 -50.36124 19739 ft 324 kts 290°
2026-04-18 00:59 -22.51278 -50.38360 19232 ft 322 kts 290°
2026-04-18 00:59 -22.50412 -50.40590 18724 ft 320 kts 290°
2026-04-18 01:00 -22.49551 -50.42805 18233 ft 319 kts 290°
2026-04-18 01:00 -22.48695 -50.45007 17730 ft 317 kts 290°
2026-04-18 01:00 -22.47847 -50.47185 17251 ft 312 kts 290°
2026-04-18 01:00 -22.47019 -50.49311 16747 ft 310 kts 290°
2026-04-18 01:01 -22.46186 -50.51451 16224 ft 308 kts 290°
2026-04-18 01:01 -22.45359 -50.53573 15733 ft 305 kts 290°
2026-04-18 01:01 -22.44537 -50.55680 15255 ft 303 kts 290°
2026-04-18 01:01 -22.43721 -50.57773 14783 ft 301 kts 291°
2026-04-18 01:02 -22.42913 -50.59846 14311 ft 298 kts 291°
2026-04-18 01:02 -22.42108 -50.61907 13855 ft 296 kts 291°
2026-04-18 01:02 -22.41306 -50.63964 13446 ft 298 kts 291°
2026-04-18 01:02 -22.40510 -50.66002 13055 ft 299 kts 291°
2026-04-18 01:03 -22.39702 -50.68069 12705 ft 298 kts 291°
2026-04-18 01:03 -22.38957 -50.69975 12376 ft 298 kts 291°
2026-04-18 01:03 -22.38151 -50.72035 12047 ft 297 kts 291°
2026-04-18 01:03 -22.37361 -50.74054 11992 ft 289 kts 291°
2026-04-18 01:04 -22.36571 -50.76073 11442 ft 297 kts 292°
2026-04-18 01:04 -22.35768 -50.78124 11023 ft 300 kts 292°
2026-04-18 01:04 -22.34964 -50.80176 10671 ft 300 kts 292°
2026-04-18 01:04 -22.34147 -50.82260 10296 ft 301 kts 292°
2026-04-18 01:05 -22.33343 -50.84308 10037 ft 298 kts 292°
2026-04-18 01:05 -22.32585 -50.86241 9803 ft 295 kts 292°
2026-04-18 01:05 -22.31816 -50.88200 9801 ft 282 kts 292°
2026-04-18 01:05 -22.31039 -50.90179 9230 ft 290 kts 293°
2026-04-18 01:06 -22.30247 -50.92193 8808 ft 292 kts 293°
2026-04-18 01:06 -22.29454 -50.94213 8449 ft 292 kts 293°
2026-04-18 01:06 -22.28674 -50.96195 8421 ft 278 kts 293°
2026-04-18 01:06 -22.27952 -50.98032 8365 ft 263 kts 292°
2026-04-18 01:07 -22.27265 -50.99777 8257 ft 248 kts 293°
2026-04-18 01:07 -22.26654 -51.01331 8160 ft 236 kts 293°
2026-04-18 01:07 -22.26029 -51.02917 8055 ft 224 kts 293°
2026-04-18 01:07 -22.25433 -51.04432 7884 ft 215 kts 293°
2026-04-18 01:08 -22.24865 -51.05875 7607 ft 214 kts 293°
2026-04-18 01:08 -22.24275 -51.07373 7282 ft 213 kts 293°
2026-04-18 01:08 -22.23697 -51.08840 6979 ft 212 kts 293°
2026-04-18 01:08 -22.23119 -51.10303 6685 ft 211 kts 294°
2026-04-18 01:09 -22.22546 -51.11757 6386 ft 210 kts 294°
2026-04-18 01:09 -22.21972 -51.13208 6074 ft 210 kts 294°
2026-04-18 01:09 -22.21418 -51.14617 5782 ft 208 kts 292°
2026-04-18 01:09 -22.21107 -51.16006 5485 ft 208 kts 276°
2026-04-18 01:10 -22.20947 -51.17506 5199 ft 207 kts 278°
2026-04-18 01:10 -22.20749 -51.19026 4997 ft 202 kts 278°
2026-04-18 01:10 -22.20547 -51.20519 4903 ft 200 kts 278°
2026-04-18 01:10 -22.20340 -51.22023 4730 ft 206 kts 278°
2026-04-18 01:11 -22.20133 -51.23531 4557 ft 203 kts 278°
2026-04-18 01:11 -22.19928 -51.25014 4349 ft 196 kts 278°
2026-04-18 01:11 -22.19748 -51.26334 4192 ft 188 kts 278°
2026-04-18 01:11 -22.19565 -51.27701 4005 ft 181 kts 278°
2026-04-18 01:12 -22.19381 -51.29040 3785 ft 180 kts 278°
2026-04-18 01:12 -22.19194 -51.30377 3563 ft 180 kts 278°
2026-04-18 01:12 -22.19008 -51.31711 3315 ft 180 kts 278°
2026-04-18 01:12 -22.18826 -51.33006 3117 ft 171 kts 278°
2026-04-18 01:13 -22.18652 -51.34242 2851 ft 156 kts 277°
2026-04-18 01:13 -22.18498 -51.35342 2666 ft 144 kts 276°
2026-04-18 01:13 -22.18354 -51.36376 2482 ft 141 kts 276°
2026-04-18 01:13 -22.18206 -51.37436 2293 ft 144 kts 277°
2026-04-18 01:14 -22.18062 -51.38511 2109 ft 145 kts 276°
2026-04-18 01:14 -22.17926 -51.39578 1977 ft 145 kts 279°
2026-04-18 01:14 -22.17758 -51.40670 1716 ft 148 kts 278°
2026-04-18 01:14 -22.17601 -51.41766 1485 ft 145 kts 279°
2026-04-18 01:15 -22.17468 -51.42726 1458 ft 110 kts 278°
2026-04-18 01:15 -22.17389 -51.43283 1433 ft 38 kts 278°
2026-04-18 01:15 -22.17372 -51.43407 1425 ft 12 kts 278°
2026-04-18 01:15 -22.17399 -51.43454 1408 ft 5 kts 171°
2026-04-18 01:16 -22.17514 -51.43377 1424 ft 0 kts 137°
2026-04-18 01:16 -22.17519 -51.43372 1424 ft 5 kts 134°
2026-04-18 01:16 -22.17540 -51.43307 1427 ft 10 kts 97°
2026-04-18 01:16 -22.17549 -51.43240 1430 ft 10 kts 98°
2026-04-18 01:17 -22.17564 -51.43133 1435 ft 17 kts 99°
2026-04-18 01:17 -22.17593 -51.42928 1441 ft 74 kts 98°
2026-04-18 01:17 -22.17648 -51.42527 1466 ft 40 kts 99°
2026-04-18 01:17 -22.17686 -51.42257 1470 ft 31 kts 99°
2026-04-18 01:18 -22.17716 -51.42048 1481 ft 29 kts 96°
2026-04-18 01:18 -22.17732 -51.41874 1483 ft 9 kts 107°
2026-04-18 01:18 -22.17770 -51.41833 1486 ft 5 kts 141°
2026-04-18 01:18 -22.17779 -51.41825 1482 ft 0 kts 139°